Location: Eastview
(35.0756°N, 88.5453°W)
Time: 01:43:18
(UTC+00:00)

H-2A R/B - Pass Details

Date: 22 November 2019
Orbit: 500 x 543 km, 97.3° (Epoch: 09 December)

Event Time Altitude Azimuth Distance (km) Brightness Sun altitude
Rises 23:32:33 0° 170° (S) 2,657 6.4 -9.9°
Reaches altitude 10° 23:34:39 10° 171° (S) 1,765 5.5 -10.3°
Maximum altitude 23:38:28 80° 259° (WSW) 536 2.8 -11.1°
Drops below altitude 10° 23:42:15 10° 346° (NNW) 1,752 5.4 -11.8°
Sets 23:44:20 0° 348° (NNW) 2,636 6.3 -12.2°
